�������l�o���
Date,Time,MP-1(��Sv/h),MP-2(��Sv/h),MP-3(��Sv/h),MP-4(��Sv/h),MP-5(��Sv/h),MP-6(��Sv/h),MP-7(��Sv/h),MP-8(��Sv/h),����,����(m/s),���J
2021/06/27,00:00,0.627,0.926,0.590,1.131,0.812,0.371,0.649,0.604,��,6.4,��
2021/06/27,00:10,0.627,0.924,0.591,1.130,0.812,0.371,0.650,0.604,��,6.2,��
2021/06/27,00:20,0.627,0.927,0.591,1.131,0.812,0.371,0.649,0.605,��,4.3,��
2021/06/27,00:30,0.625,0.926,0.591,1.129,0.811,0.372,0.650,0.607,��,5.7,��
2021/06/27,00:40,0.625,0.924,0.592,1.132,0.811,0.372,0.651,0.605,��쐼,5.3,��
2021/06/27,00:50,0.627,0.926,0.592,1.131,0.813,0.371,0.649,0.605,��쐼,3.4,��
2021/06/27,01:00,0.626,0.924,0.591,1.131,0.813,0.371,0.649,0.605,��쐼,1.7,��
2021/06/27,01:10,0.625,0.926,0.592,1.131,0.812,0.373,0.648,0.605,��,1.2,��
2021/06/27,01:20,0.626,0.924,0.591,1.129,0.812,0.372,0.650,0.605,-,CALM,��
2021/06/27,01:30,0.626,0.927,0.592,1.132,0.814,0.372,0.649,0.607,-,CALM,��
2021/06/27,01:40,0.626,0.926,0.594,1.130,0.813,0.371,0.650,0.606,-,CALM,��
2021/06/27,01:50,0.627,0.925,0.591,1.133,0.813,0.372,0.650,0.605,��쓌,1.2,��
2021/06/27,02:00,0.626,0.925,0.592,1.130,0.814,0.373,0.648,0.605,��,1.2,��
2021/06/27,02:10,0.627,0.927,0.593,1.131,0.814,0.371,0.650,0.605,��쐼,0.9,��
2021/06/27,02:20,0.629,0.925,0.594,1.131,0.813,0.371,0.649,0.605,�쐼,1.5,��
2021/06/27,02:30,0.628,0.926,0.592,1.132,0.814,0.372,0.649,0.605,�k��,1.2,��
2021/06/27,02:40,0.626,0.925,0.592,1.130,0.812,0.371,0.650,0.607,�k��,1.2,��
2021/06/27,02:50,0.627,0.926,0.592,1.132,0.812,0.371,0.650,0.605,�k�k��,2.5,��
2021/06/27,03:00,0.627,0.925,0.591,1.130,0.814,0.373,0.649,0.606,�k�k��,2.2,��
2021/06/27,03:10,0.625,0.925,0.591,1.132,0.812,0.373,0.648,0.605,�k��,2.8,��
2021/06/27,03:20,0.627,0.925,0.592,1.131,0.812,0.371,0.651,0.607,�k�k��,3.0,��
2021/06/27,03:30,0.627,0.925,0.593,1.129,0.814,0.374,0.649,0.606,�k��,2.3,��
2021/06/27,03:40,0.628,0.924,0.592,1.131,0.811,0.372,0.649,0.607,�k�k��,2.3,��
2021/06/27,03:50,0.626,0.923,0.592,1.131,0.814,0.372,0.651,0.606,�k,2.5,��
2021/06/27,04:00,0.629,0.926,0.592,1.133,0.814,0.374,0.648,0.607,�k,1.7,��
2021/06/27,04:10,0.628,0.926,0.592,1.131,0.813,0.374,0.650,0.607,�k�k��,3.1,��
2021/06/27,04:20,0.627,0.926,0.594,1.132,0.813,0.371,0.649,0.606,�k�k��,3.3,��
2021/06/27,04:30,0.627,0.925,0.592,1.131,0.812,0.373,0.650,0.606,�k�k��,3.8,��
2021/06/27,04:40,0.627,0.925,0.593,1.131,0.813,0.372,0.651,0.606,�k�k��,3.2,��
2021/06/27,04:50,0.627,0.926,0.593,1.132,0.814,0.372,0.650,0.607,�k�k��,4.2,��
2021/06/27,05:00,0.626,0.925,0.594,1.133,0.813,0.372,0.650,0.607,�k�k��,4.3,�L
2021/06/27,05:10,0.627,0.924,0.592,1.133,0.814,0.372,0.650,0.606,�k�k��,4.0,��
2021/06/27,05:20,0.627,0.925,0.593,1.131,0.813,0.373,0.651,0.608,�k�k��,3.7,��
2021/06/27,05:30,0.626,0.925,0.591,1.131,0.811,0.372,0.651,0.606,�k�k��,4.4,��
2021/06/27,05:40,0.625,0.926,0.592,1.133,0.812,0.371,0.650,0.606,�k�k��,3.9,��
2021/06/27,05:50,0.628,0.923,0.591,1.133,0.813,0.373,0.650,0.606,�k�k��,4.1,��
2021/06/27,06:00,0.628,0.925,0.594,1.130,0.813,0.372,0.652,0.608,�k�k��,4.4,��
2021/06/27,06:10,0.628,0.926,0.592,1.130,0.811,0.373,0.650,0.605,�k�k��,3.9,��
2021/06/27,06:20,0.627,0.926,0.592,1.130,0.811,0.373,0.649,0.606,�k�k��,3.6,��
2021/06/27,06:30,0.626,0.926,0.590,1.130,0.811,0.372,0.650,0.605,�k�k��,4.1,��
2021/06/27,06:40,0.625,0.925,0.591,1.130,0.811,0.371,0.651,0.606,�k�k��,3.3,��
2021/06/27,06:50,0.627,0.925,0.589,1.132,0.811,0.371,0.648,0.606,�k��,3.5,��
2021/06/27,07:00,0.626,0.924,0.592,1.131,0.811,0.370,0.649,0.607,�k��,2.0,��
2021/06/27,07:10,0.627,0.923,0.591,1.131,0.811,0.371,0.649,0.606,�k,1.5,��
2021/06/27,07:20,0.625,0.921,0.590,1.130,0.812,0.371,0.648,0.606,�k�k��,2.5,��
2021/06/27,07:30,0.623,0.920,0.592,1.132,0.810,0.370,0.648,0.606,�k,1.5,��
2021/06/27,07:40,0.625,0.922,0.592,1.129,0.811,0.372,0.650,0.606,�k��,2.0,��
2021/06/27,07:50,0.623,0.922,0.591,1.130,0.810,0.371,0.648,0.604,�k�k��,2.0,��
2021/06/27,08:00,0.622,0.922,0.590,1.132,0.814,0.370,0.649,0.603,�k��,2.6,��
2021/06/27,08:10,0.625,0.921,0.591,1.131,0.812,0.370,0.649,0.605,�k��,3.3,��
2021/06/27,08:20,0.624,0.923,0.592,1.132,0.813,0.371,0.647,0.603,�k��,2.9,��
2021/06/27,08:30,0.624,0.922,0.591,1.131,0.814,0.371,0.649,0.603,�k�k��,2.6,��
2021/06/27,08:40,0.624,0.924,0.591,1.133,0.811,0.370,0.648,0.603,�k�k��,2.8,��
2021/06/27,08:50,0.625,0.925,0.591,1.128,0.811,0.370,0.647,0.602,�k�k��,3.2,��
2021/06/27,09:00,0.625,0.923,0.592,1.130,0.811,0.370,0.648,0.604,�k��,3.1,��
2021/06/27,09:10,0.625,0.924,0.589,1.130,0.813,0.372,0.648,0.602,�k��,2.3,��
2021/06/27,09:20,0.626,0.925,0.589,1.130,0.813,0.370,0.649,0.604,�k��,2.3,��
2021/06/27,09:30,0.624,0.923,0.589,1.131,0.810,0.371,0.647,0.604,���k��,1.9,��
2021/06/27,09:40,0.625,0.923,0.590,1.130,0.812,0.371,0.649,0.605,��,1.5,��
2021/06/27,09:50,0.626,0.925,0.590,1.131,0.812,0.371,0.648,0.604,�k��,2.0,��
2021/06/27,10:00,0.625,0.924,0.589,1.131,0.812,0.371,0.649,0.604,���k��,2.3,��
2021/06/27,10:10,0.624,0.923,0.592,1.132,0.813,0.371,0.647,0.605,���k��,2.0,��
2021/06/27,10:20,0.626,0.926,0.592,1.131,0.814,0.370,0.648,0.604,���k��,2.3,��
2021/06/27,10:30,0.626,0.925,0.591,1.129,0.814,0.372,0.648,0.605,���k��,2.8,��
2021/06/27,10:40,0.626,0.926,0.589,1.131,0.814,0.370,0.649,0.604,���k��,2.6,��
2021/06/27,10:50,0.628,0.925,0.590,1.130,0.814,0.371,0.648,0.604,��,2.8,��
2021/06/27,11:00,0.627,0.925,0.590,1.129,0.814,0.371,0.649,0.603,���k��,3.0,��
2021/06/27,11:10,0.626,0.925,0.590,1.130,0.813,0.372,0.649,0.602,��,3.0,��
2021/06/27,11:20,0.627,0.925,0.591,1.130,0.815,0.371,0.649,0.606,��,1.5,��
2021/06/27,11:30,0.627,0.927,0.590,1.126,0.813,0.371,0.649,0.605,��,3.1,��
2021/06/27,11:40,0.626,0.927,0.591,1.129,0.814,0.371,0.652,0.605,��,2.0,��
2021/06/27,11:50,0.628,0.928,0.590,1.130,0.815,0.371,0.648,0.604,���쓌,2.0,��
2021/06/27,12:00,0.625,0.928,0.590,1.128,0.814,0.371,0.650,0.603,��,2.0,��
2021/06/27,12:10,0.628,0.927,0.590,1.129,0.816,0.373,0.647,0.603,��,2.5,��
2021/06/27,12:20,0.626,0.927,0.589,1.132,0.817,0.371,0.648,0.604,��,3.4,��
2021/06/27,12:30,0.626,0.928,0.590,1.132,0.816,0.372,0.650,0.605,���쓌,2.8,��
2021/06/27,12:40,0.626,0.926,0.591,1.131,0.815,0.372,0.649,0.604,��,2.0,��
2021/06/27,12:50,0.627,0.928,0.590,1.133,0.815,0.372,0.649,0.604,���쓌,2.2,��
2021/06/27,13:00,0.626,0.928,0.591,1.130,0.816,0.371,0.649,0.604,��,2.8,��
2021/06/27,13:10,0.625,0.927,0.591,1.131,0.816,0.371,0.650,0.604,���쓌,2.6,��
2021/06/27,13:20,0.627,0.929,0.590,1.133,0.816,0.372,0.648,0.603,���쓌,2.6,��
2021/06/27,13:30,0.626,0.926,0.591,1.131,0.816,0.369,0.649,0.604,���쓌,3.0,��
2021/06/27,13:40,0.627,0.927,0.591,1.130,0.817,0.372,0.648,0.605,���쓌,2.3,��
2021/06/27,13:50,0.627,0.925,0.591,1.130,0.815,0.372,0.647,0.603,���쓌,2.6,��
2021/06/27,14:00,0.627,0.928,0.589,1.134,0.818,0.373,0.649,0.605,���쓌,2.3,��
2021/06/27,14:10,0.628,0.927,0.590,1.131,0.816,0.372,0.650,0.603,���쓌,2.3,��
2021/06/27,14:20,0.626,0.927,0.590,1.132,0.817,0.372,0.650,0.604,��,3.4,��
2021/06/27,14:30,0.629,0.928,0.592,1.132,0.816,0.372,0.648,0.604,���쓌,2.6,��
2021/06/27,14:40,0.628,0.928,0.592,1.136,0.816,0.372,0.650,0.605,���쓌,2.8,��
2021/06/27,14:50,0.628,0.929,0.591,1.134,0.814,0.372,0.648,0.602,��,2.0,��
2021/06/27,15:00,0.627,0.928,0.591,1.134,0.816,0.371,0.648,0.604,���쓌,2.6,��
2021/06/27,15:10,0.630,0.928,0.592,1.135,0.818,0.370,0.649,0.604,��,2.5,��
2021/06/27,15:20,0.629,0.928,0.591,1.134,0.818,0.370,0.648,0.605,��,2.5,��
2021/06/27,15:30,0.628,0.930,0.592,1.136,0.816,0.373,0.649,0.606,��,1.5,��
2021/06/27,15:40,0.627,0.930,0.593,1.134,0.817,0.372,0.649,0.603,���k��,2.2,��
2021/06/27,15:50,0.627,0.930,0.591,1.135,0.818,0.371,0.650,0.602,��,2.2,��
2021/06/27,16:00,0.627,0.927,0.591,1.136,0.818,0.372,0.649,0.604,���k��,1.7,��
2021/06/27,16:10,0.627,0.926,0.593,1.134,0.817,0.372,0.648,0.605,�k��,1.5,��
2021/06/27,16:20,0.626,0.929,0.591,1.136,0.817,0.371,0.652,0.605,�k��,1.5,��
2021/06/27,16:30,0.626,0.931,0.592,1.134,0.816,0.372,0.649,0.604,�k��,1.5,��
2021/06/27,16:40,0.628,0.929,0.591,1.135,0.818,0.371,0.651,0.605,���k��,1.7,��
2021/06/27,16:50,0.627,0.929,0.592,1.137,0.818,0.371,0.651,0.605,���k��,1.1,��
2021/06/27,17:00,0.627,0.929,0.593,1.135,0.818,0.371,0.651,0.606,-,CALM,��
2021/06/27,17:10,0.626,0.930,0.594,1.138,0.821,0.371,0.651,0.608,�k��,1.2,��
2021/06/27,17:20,0.629,0.930,0.592,1.136,0.820,0.373,0.651,0.606,���k��,1.7,��
2021/06/27,17:30,0.627,0.930,0.594,1.136,0.816,0.372,0.650,0.605,�k�k��,2.0,��
2021/06/27,17:40,0.627,0.931,0.593,1.136,0.818,0.372,0.651,0.606,�k�k��,2.5,��
2021/06/27,17:50,0.628,0.931,0.593,1.136,0.816,0.371,0.652,0.606,�k�k��,2.3,��
2021/06/27,18:00,0.628,0.929,0.593,1.137,0.818,0.372,0.652,0.606,�k�k��,2.3,��
2021/06/27,18:10,0.629,0.930,0.593,1.136,0.819,0.374,0.650,0.606,�k�k��,1.7,��
2021/06/27,18:20,0.629,0.931,0.592,1.139,0.818,0.373,0.651,0.606,�k�k��,2.0,��
2021/06/27,18:30,0.628,0.931,0.594,1.138,0.818,0.372,0.651,0.606,�k,2.3,��
2021/06/27,18:40,0.628,0.932,0.594,1.135,0.817,0.370,0.651,0.606,�k,2.0,��
2021/06/27,18:50,0.629,0.931,0.594,1.136,0.817,0.372,0.652,0.606,�k,2.0,�L
2021/06/27,19:00,0.627,0.930,0.594,1.136,0.818,0.370,0.651,0.607,�k�k��,2.5,�L
2021/06/27,19:10,0.629,0.931,0.593,1.135,0.818,0.372,0.651,0.607,�k,2.3,�L
2021/06/27,19:20,0.629,0.932,0.594,1.135,0.819,0.372,0.652,0.607,�k,2.6,�L
2021/06/27,19:30,0.627,0.929,0.593,1.137,0.818,0.373,0.652,0.607,�k,3.0,�L
2021/06/27,19:40,0.631,0.932,0.594,1.137,0.820,0.373,0.650,0.607,�k,2.9,�L
2021/06/27,19:50,0.628,0.929,0.593,1.136,0.819,0.371,0.652,0.607,�k,3.3,�L
2021/06/27,20:00,0.627,0.931,0.593,1.137,0.816,0.373,0.651,0.607,�k,4.1,��
2021/06/27,20:10,0.628,0.931,0.595,1.137,0.819,0.373,0.650,0.608,�k�k��,4.2,��
2021/06/27,20:20,0.628,0.930,0.596,1.135,0.816,0.373,0.650,0.609,�k�k��,4.0,�L
2021/06/27,20:30,0.628,0.928,0.594,1.137,0.817,0.372,0.651,0.609,�k�k��,3.6,�L
2021/06/27,20:40,0.631,0.929,0.593,1.136,0.816,0.372,0.652,0.606,�k�k��,3.9,�L
2021/06/27,20:50,0.629,0.929,0.592,1.133,0.818,0.373,0.651,0.607,�k�k��,3.6,��
2021/06/27,21:00,0.631,0.928,0.594,1.138,0.816,0.373,0.652,0.606,�k�k��,4.1,��
2021/06/27,21:10,0.630,0.930,0.594,1.137,0.816,0.372,0.652,0.606,�k�k��,4.7,��
2021/06/27,21:20,0.629,0.930,0.593,1.138,0.818,0.373,0.651,0.605,�k�k��,4.7,��
2021/06/27,21:30,0.627,0.930,0.593,1.134,0.818,0.372,0.651,0.607,�k�k��,4.3,��
2021/06/27,21:40,0.629,0.931,0.594,1.137,0.817,0.372,0.652,0.608,�k�k��,4.9,��
2021/06/27,21:50,0.628,0.929,0.594,1.136,0.817,0.373,0.653,0.607,�k�k��,5.3,��
2021/06/27,22:00,0.629,0.930,0.594,1.135,0.818,0.370,0.651,0.608,�k�k��,4.5,��
2021/06/27,22:10,0.628,0.929,0.592,1.135,0.818,0.372,0.649,0.608,�k�k��,4.9,�L
2021/06/27,22:20,0.629,0.927,0.591,1.138,0.817,0.371,0.651,0.608,�k,4.5,�L
2021/06/27,22:30,0.628,0.928,0.591,1.137,0.817,0.371,0.651,0.607,�k,4.5,�L
2021/06/27,22:40,0.628,0.929,0.594,1.137,0.817,0.371,0.650,0.605,�k�k��,4.7,�L
2021/06/27,22:50,0.629,0.926,0.593,1.137,0.818,0.373,0.650,0.607,�k�k��,3.8,��
2021/06/27,23:00,0.629,0.927,0.594,1.135,0.816,0.371,0.651,0.607,�k�k��,5.1,��
2021/06/27,23:10,0.629,0.928,0.593,1.138,0.817,0.372,0.652,0.608,�k�k��,5.5,��
2021/06/27,23:20,0.628,0.928,0.594,1.135,0.818,0.372,0.651,0.606,�k�k��,6.3,��
2021/06/27,23:30,0.628,0.927,0.592,1.135,0.818,0.372,0.650,0.607,�k�k��,5.7,��
2021/06/27,23:40,0.627,0.927,0.592,1.136,0.816,0.373,0.651,0.608,�k�k��,6.2,��
2021/06/27,23:50,0.628,0.929,0.593,1.136,0.817,0.372,0.649,0.606,�k�k��,5.9,��
